Torna al catalogo

FENGYUN 1C DEB

AttivoVLEO
NORAD 30290·DEBRIS·🇨🇳 China

Lanciato May 10, 1999 da Taiyuan Satellite Launch Center

Loading…

Prossimi Passaggi (prossime 24 ore)

TLE

AggiornatoSource: Space-Track

Epoca: Sep 14, 2026, 14:47 UTC

1 30290U 99025ZB  26257.61654029  .00040490  00000-0  33872-2 0  9996
2 30290 102.6072 165.1581 0012953  21.2678  96.5530 14.98281733 19775

Traccia FENGYUN 1C DEB in tempo reale con AllMySat

Download on the App Store